Time,TemperatureF,DewpointF,PressureIn,WindDirection,WindDirectionDegrees,WindSpeedMPH,WindSpeedGustMPH,Humidity,HourlyPrecipIn,Conditions,Clouds,dailyrainin,SoftwareType,DateUTC
2013-10-09 00:11:00,59.4,58.8,29.95,West,270,0.0,-999.0,98,-99.99,,,0.00,Acu-Link.com,2013-10-09 04:11:00,
2013-10-09 00:26:00,59.0,58.4,29.94,WSW,247,0.0,-999.0,98,-99.99,,,0.00,Acu-Link.com,2013-10-09 04:26:00,
2013-10-09 00:41:00,58.5,57.9,29.94,West,270,1.7,-999.0,98,-99.99,,,0.00,Acu-Link.com,2013-10-09 04:41:00,
2013-10-09 00:56:00,58.1,57.5,29.94,WSW,247,0.0,-999.0,98,-99.99,,,0.00,Acu-Link.com,2013-10-09 04:56:00,
2013-10-09 01:12:00,57.7,57.1,29.94,NW,315,0.0,-999.0,98,-99.99,,,0.00,Acu-Link.com,2013-10-09 05:12:00,
2013-10-09 01:27:00,57.6,57.0,29.94,North,0,0.0,-999.0,98,-99.99,,,0.00,Acu-Link.com,2013-10-09 05:27:00,
2013-10-09 01:42:00,57.2,56.6,29.94,SW,225,0.0,-999.0,98,-99.99,,,0.00,Acu-Link.com,2013-10-09 05:42:00,
2013-10-09 01:58:00,57.0,56.4,29.94,West,270,0.0,-999.0,98,-99.99,,,0.00,Acu-Link.com,2013-10-09 05:58:00,
2013-10-09 02:13:00,56.8,56.2,29.95,SSW,202,0.0,-999.0,98,-99.99,,,0.00,Acu-Link.com,2013-10-09 06:13:00,
2013-10-09 02:28:00,56.5,55.9,29.95,West,270,0.0,-999.0,98,-99.99,,,0.00,Acu-Link.com,2013-10-09 06:28:00,
2013-10-09 02:43:00,56.3,55.7,29.95,West,270,0.0,-999.0,98,-99.99,,,0.00,Acu-Link.com,2013-10-09 06:43:00,
2013-10-09 02:59:00,56.1,55.5,29.95,SW,225,0.0,-999.0,98,-99.99,,,0.00,Acu-Link.com,2013-10-09 06:59:00,
2013-10-09 03:14:00,55.9,55.3,29.95,WSW,247,0.0,-999.0,98,-99.99,,,0.00,Acu-Link.com,2013-10-09 07:14:00,
2013-10-09 03:29:00,55.8,55.2,29.96,WNW,292,0.0,-999.0,98,-99.99,,,0.00,Acu-Link.com,2013-10-09 07:29:00,
2013-10-09 03:45:00,55.4,54.8,29.96,West,270,0.0,-999.0,98,-99.99,,,0.00,Acu-Link.com,2013-10-09 07:45:00,
2013-10-09 04:00:00,55.0,54.4,29.96,West,270,0.0,-999.0,98,-99.99,,,0.00,Acu-Link.com,2013-10-09 08:00:00,
2013-10-09 04:15:00,54.9,54.3,29.96,West,270,0.0,-999.0,98,-99.99,,,0.00,Acu-Link.com,2013-10-09 08:15:00,
2013-10-09 04:31:00,54.9,54.3,29.96,West,270,0.0,-999.0,98,-99.99,,,0.00,Acu-Link.com,2013-10-09 08:31:00,
2013-10-09 04:46:00,54.9,54.3,29.96,West,270,0.0,-999.0,98,-99.99,,,0.00,Acu-Link.com,2013-10-09 08:46:00,
2013-10-09 05:01:00,54.7,54.1,29.96,West,270,0.0,-999.0,98,-99.99,,,0.00,Acu-Link.com,2013-10-09 09:01:00,
2013-10-09 05:16:00,54.3,53.7,29.96,West,270,0.0,-999.0,98,-99.99,,,0.00,Acu-Link.com,2013-10-09 09:16:00,
2013-10-09 05:31:00,54.1,53.5,29.97,West,270,0.0,-999.0,98,-99.99,,,0.00,Acu-Link.com,2013-10-09 09:31:00,
2013-10-09 05:46:00,54.0,53.4,29.96,West,270,0.0,-999.0,98,-99.99,,,0.00,Acu-Link.com,2013-10-09 09:46:00,
2013-10-09 06:01:00,54.0,53.4,29.97,West,270,0.0,-999.0,98,-99.99,,,0.00,Acu-Link.com,2013-10-09 10:01:00,
2013-10-09 06:16:00,54.5,53.9,29.99,NW,315,0.0,-999.0,98,-99.99,,,0.00,Acu-Link.com,2013-10-09 10:16:00,
2013-10-09 06:32:00,54.7,54.1,29.99,WNW,292,0.0,-999.0,98,-99.99,,,0.00,Acu-Link.com,2013-10-09 10:32:00,
2013-10-09 06:47:00,54.7,54.1,29.99,WNW,292,0.0,-999.0,98,-99.99,,,0.00,Acu-Link.com,2013-10-09 10:47:00,
2013-10-09 07:02:00,54.7,54.1,29.99,NW,315,0.0,-999.0,98,-99.99,,,0.00,Acu-Link.com,2013-10-09 11:02:00,
2013-10-09 07:17:00,54.5,53.9,29.99,NW,315,0.0,-999.0,98,-99.99,,,0.00,Acu-Link.com,2013-10-09 11:17:00,
2013-10-09 07:33:00,54.5,53.9,29.99,NW,315,0.0,-999.0,98,-99.99,,,0.00,Acu-Link.com,2013-10-09 11:33:00,
2013-10-09 07:48:00,54.1,53.5,29.99,WNW,292,0.0,-999.0,98,-99.99,,,0.00,Acu-Link.com,2013-10-09 11:48:00,
2013-10-09 08:03:00,54.5,53.9,30.00,WSW,247,0.0,-999.0,98,-99.99,,,0.00,Acu-Link.com,2013-10-09 12:03:00,
2013-10-09 08:19:00,55.9,55.3,30.01,WNW,292,0.0,-999.0,98,-99.99,,,0.00,Acu-Link.com,2013-10-09 12:19:00,
2013-10-09 08:34:00,56.8,56.2,30.01,WSW,247,1.1,-999.0,98,-99.99,,,0.00,Acu-Link.com,2013-10-09 12:34:00,
2013-10-09 08:49:00,58.3,57.7,30.01,North,0,0.0,-999.0,98,-99.99,,,0.00,Acu-Link.com,2013-10-09 12:49:00,
2013-10-09 09:04:00,58.6,58.0,30.01,WSW,247,0.0,-999.0,98,-99.99,,,0.00,Acu-Link.com,2013-10-09 13:04:00,
2013-10-09 09:19:00,59.2,58.6,30.02,WNW,292,0.0,-999.0,98,-99.99,,,0.00,Acu-Link.com,2013-10-09 13:19:00,
2013-10-09 09:35:00,60.6,60.0,30.03,WNW,292,0.0,-999.0,98,-99.99,,,0.00,Acu-Link.com,2013-10-09 13:35:00,
2013-10-09 09:50:00,62.4,61.8,30.02,ESE,112,1.7,-999.0,98,-99.99,,,0.00,Acu-Link.com,2013-10-09 13:50:00,
2013-10-09 10:05:00,63.5,62.9,30.03,ESE,112,1.1,-999.0,98,-99.99,,,0.00,Acu-Link.com,2013-10-09 14:05:00,
2013-10-09 10:21:00,64.6,64.0,30.03,NW,315,1.1,-999.0,98,-99.99,,,0.00,Acu-Link.com,2013-10-09 14:21:00,
2013-10-09 10:36:00,65.7,65.1,30.03,North,0,1.7,-999.0,98,-99.99,,,0.00,Acu-Link.com,2013-10-09 14:36:00,
2013-10-09 10:51:00,67.1,66.5,30.03,SE,135,2.2,-999.0,98,-99.99,,,0.00,Acu-Link.com,2013-10-09 14:51:00,
2013-10-09 11:06:00,71.4,70.8,30.03,ESE,112,3.2,-999.0,98,-99.99,,,0.00,Acu-Link.com,2013-10-09 15:06:00,
2013-10-09 11:22:00,73.6,69.1,30.03,SE,135,3.7,-999.0,86,-99.99,,,0.00,Acu-Link.com,2013-10-09 15:22:00,
2013-10-09 11:37:00,76.3,66.2,30.03,SSE,157,2.2,-999.0,71,-99.99,,,0.00,Acu-Link.com,2013-10-09 15:37:00,
2013-10-09 11:52:00,76.5,65.6,30.03,ESE,112,3.2,-999.0,69,-99.99,,,0.00,Acu-Link.com,2013-10-09 15:52:00,
2013-10-09 12:07:00,77.7,64.1,30.02,ESE,112,2.7,-999.0,63,-99.99,,,0.00,Acu-Link.com,2013-10-09 16:07:00,
2013-10-09 12:23:00,78.4,64.3,30.02,ESE,112,3.2,-999.0,62,-99.99,,,0.00,Acu-Link.com,2013-10-09 16:23:00,
2013-10-09 12:38:00,79.5,63.9,30.02,SSE,157,2.2,-999.0,59,-99.99,,,0.00,Acu-Link.com,2013-10-09 16:38:00,
2013-10-09 12:53:00,81.1,63.4,30.01,ESE,112,1.1,-999.0,55,-99.99,,,0.00,Acu-Link.com,2013-10-09 16:53:00,
2013-10-09 13:09:00,81.0,62.8,30.01,South,180,2.7,-999.0,54,-99.99,,,0.00,Acu-Link.com,2013-10-09 17:09:00,
2013-10-09 13:24:00,78.6,63.1,30.00,SSE,157,2.2,-999.0,59,-99.99,,,0.00,Acu-Link.com,2013-10-09 17:24:00,
2013-10-09 13:40:00,77.5,64.8,29.99,ESE,112,1.7,-999.0,65,-99.99,,,0.00,Acu-Link.com,2013-10-09 17:40:00,
2013-10-09 13:55:00,76.5,66.0,29.98,East,90,2.2,-999.0,70,-99.99,,,0.00,Acu-Link.com,2013-10-09 17:55:00,
2013-10-09 14:10:00,75.6,67.9,29.97,East,90,2.2,-999.0,77,-99.99,,,0.00,Acu-Link.com,2013-10-09 18:10:00,
2013-10-09 14:26:00,75.4,68.0,29.96,East,90,2.2,-999.0,78,-99.99,,,0.00,Acu-Link.com,2013-10-09 18:26:00,
2013-10-09 14:41:00,75.6,71.1,29.95,SE,135,1.7,-999.0,86,-99.99,,,0.00,Acu-Link.com,2013-10-09 18:41:00,
2013-10-09 14:56:00,75.2,68.2,29.95,SSE,157,0.0,-999.0,79,-99.99,,,0.00,Acu-Link.com,2013-10-09 18:56:00,
2013-10-09 15:11:00,75.6,69.0,29.95,ESE,112,2.7,-999.0,80,-99.99,,,0.00,Acu-Link.com,2013-10-09 19:11:00,
2013-10-09 15:26:00,75.7,68.7,29.94,SSE,157,1.7,-999.0,79,-99.99,,,0.00,Acu-Link.com,2013-10-09 19:26:00,
2013-10-09 15:42:00,76.1,68.0,29.94,SSE,157,0.0,-999.0,76,-99.99,,,0.00,Acu-Link.com,2013-10-09 19:42:00,
2013-10-09 15:57:00,76.5,68.4,29.94,SSE,157,1.7,-999.0,76,-99.99,,,0.00,Acu-Link.com,2013-10-09 19:57:00,
2013-10-09 16:12:00,76.5,68.4,29.93,ESE,112,1.7,-999.0,76,-99.99,,,0.00,Acu-Link.com,2013-10-09 20:12:00,
2013-10-09 16:28:00,76.8,67.1,29.93,ESE,112,2.2,-999.0,72,-99.99,,,0.00,Acu-Link.com,2013-10-09 20:28:00,
2013-10-09 16:43:00,79.2,63.6,29.92,ESE,112,2.2,-999.0,59,-99.99,,,0.00,Acu-Link.com,2013-10-09 20:43:00,
2013-10-09 16:58:00,81.0,63.8,29.91,ESE,112,2.7,-999.0,56,-99.99,,,0.00,Acu-Link.com,2013-10-09 20:58:00,
2013-10-09 17:14:00,82.2,63.9,29.92,SSE,157,0.0,-999.0,54,-99.99,,,0.00,Acu-Link.com,2013-10-09 21:14:00,
2013-10-09 17:29:00,83.5,62.9,29.91,ESE,112,1.1,-999.0,50,-99.99,,,0.00,Acu-Link.com,2013-10-09 21:29:00,
2013-10-09 17:44:00,83.1,63.1,29.91,WSW,247,0.0,-999.0,51,-99.99,,,0.00,Acu-Link.com,2013-10-09 21:44:00,
2013-10-09 17:59:00,82.0,63.2,29.91,NNW,337,0.0,-999.0,53,-99.99,,,0.00,Acu-Link.com,2013-10-09 21:59:00,
2013-10-09 18:14:00,79.7,63.1,29.91,SSE,157,0.0,-999.0,57,-99.99,,,0.00,Acu-Link.com,2013-10-09 22:14:00,
2013-10-09 18:30:00,76.8,64.1,29.91,SSW,202,0.0,-999.0,65,-99.99,,,0.00,Acu-Link.com,2013-10-09 22:30:00,
2013-10-09 18:45:00,74.7,73.8,29.91,SW,225,0.0,-999.0,97,-99.99,,,0.00,Acu-Link.com,2013-10-09 22:45:00,
2013-10-09 19:00:00,72.9,72.3,29.91,West,270,0.0,-999.0,98,-99.99,,,0.00,Acu-Link.com,2013-10-09 23:00:00,
2013-10-09 19:16:00,71.4,70.8,29.91,West,270,0.0,-999.0,98,-99.99,,,0.00,Acu-Link.com,2013-10-09 23:16:00,
2013-10-09 19:31:00,69.4,68.8,29.91,WNW,292,0.0,-999.0,98,-99.99,,,0.00,Acu-Link.com,2013-10-09 23:31:00,
2013-10-09 19:46:00,68.2,67.6,29.91,SW,225,0.0,-999.0,98,-99.99,,,0.00,Acu-Link.com,2013-10-09 23:46:00,
2013-10-09 20:01:00,66.6,66.0,29.92,West,270,0.0,-999.0,98,-99.99,,,0.00,Acu-Link.com,2013-10-10 00:01:00,
2013-10-09 20:17:00,66.0,65.4,29.91,West,270,0.0,-999.0,98,-99.99,,,0.00,Acu-Link.com,2013-10-10 00:17:00,
2013-10-09 20:32:00,65.5,64.9,29.92,SSW,202,0.0,-999.0,98,-99.99,,,0.00,Acu-Link.com,2013-10-10 00:32:00,
2013-10-09 20:47:00,64.6,64.0,29.92,WSW,247,0.0,-999.0,98,-99.99,,,0.00,Acu-Link.com,2013-10-10 00:47:00,
2013-10-09 21:02:00,63.9,63.3,29.92,WSW,247,0.0,-999.0,98,-99.99,,,0.00,Acu-Link.com,2013-10-10 01:02:00,
2013-10-09 21:17:00,63.3,62.7,29.92,NW,315,0.0,-999.0,98,-99.99,,,0.00,Acu-Link.com,2013-10-10 01:17:00,
2013-10-09 21:33:00,62.8,62.2,29.93,WSW,247,0.0,-999.0,98,-99.99,,,0.00,Acu-Link.com,2013-10-10 01:33:00,
2013-10-09 21:48:00,62.2,61.6,29.93,South,180,0.0,-999.0,98,-99.99,,,0.00,Acu-Link.com,2013-10-10 01:48:00,
2013-10-09 22:03:00,62.1,61.5,29.93,South,180,0.0,-999.0,98,-99.99,,,0.00,Acu-Link.com,2013-10-10 02:03:00,
2013-10-09 22:18:00,61.7,61.1,29.93,WSW,247,0.0,-999.0,98,-99.99,,,0.00,Acu-Link.com,2013-10-10 02:18:00,
2013-10-09 22:34:00,61.7,61.1,29.93,WSW,247,0.0,-999.0,98,-99.99,,,0.00,Acu-Link.com,2013-10-10 02:34:00,
2013-10-09 22:49:00,61.7,61.1,29.94,SSW,202,0.0,-999.0,98,-99.99,,,0.00,Acu-Link.com,2013-10-10 02:49:00,
2013-10-09 23:04:00,61.9,61.3,29.94,SSW,202,0.0,-999.0,98,-99.99,,,0.00,Acu-Link.com,2013-10-10 03:04:00,
2013-10-09 23:20:00,61.9,61.3,29.93,West,270,0.0,-999.0,98,-99.99,,,0.00,Acu-Link.com,2013-10-10 03:20:00,
2013-10-09 23:35:00,61.9,61.3,29.93,West,270,0.0,-999.0,98,-99.99,,,0.00,Acu-Link.com,2013-10-10 03:35:00,
2013-10-09 23:50:00,61.7,61.1,29.93,West,270,0.0,-999.0,98,-99.99,,,0.00,Acu-Link.com,2013-10-10 03:50:00,